TimePST,TemperatureF,Dew PointF,Humidity,Sea Level PressureIn,VisibilityMPH,Wind Direction,Wind SpeedMPH,Gust SpeedMPH,PrecipitationIn,Events,Conditions,WindDirDegrees,DateUTC
12:15 AM,32.0,32.0,100,30.07,7.0,Calm,Calm,-,N/A,,Unknown,0,2012-12-29 08:15:00
12:35 AM,32.0,32.0,100,30.07,9.0,Calm,Calm,-,N/A,,Unknown,0,2012-12-29 08:35:00
12:55 AM,32.0,32.0,100,30.07,6.0,Calm,Calm,-,N/A,,Unknown,0,2012-12-29 08:55:00
1:15 AM,32.0,32.0,100,30.07,1.5,Calm,Calm,-,N/A,,Unknown,0,2012-12-29 09:15:00
1:35 AM,32.0,32.0,100,30.07,7.0,Calm,Calm,-,N/A,,Unknown,0,2012-12-29 09:35:00
1:55 AM,32.0,32.0,100,30.07,10.0,Calm,Calm,-,N/A,,Unknown,0,2012-12-29 09:55:00
2:15 AM,32.0,32.0,100,30.08,10.0,Calm,Calm,-,N/A,,Unknown,0,2012-12-29 10:15:00
2:35 AM,32.0,32.0,100,30.08,7.0,Calm,Calm,-,N/A,,Unknown,0,2012-12-29 10:35:00
2:55 AM,32.0,30.2,93,30.08,4.0,Calm,Calm,-,N/A,,Unknown,0,2012-12-29 10:55:00
3:15 AM,32.0,30.2,93,30.08,3.0,Calm,Calm,-,N/A,,Unknown,0,2012-12-29 11:15:00
3:35 AM,30.2,28.4,93,30.08,3.0,Calm,Calm,-,N/A,,Unknown,0,2012-12-29 11:35:00
3:55 AM,30.2,30.2,100,30.07,3.0,Calm,Calm,-,N/A,,Unknown,0,2012-12-29 11:55:00
4:15 AM,30.2,28.4,93,30.08,0.2,Calm,Calm,-,N/A,,Unknown,0,2012-12-29 12:15:00
4:35 AM,30.2,28.4,93,30.08,0.2,Calm,Calm,-,N/A,,Unknown,0,2012-12-29 12:35:00
4:55 AM,32.0,30.2,93,30.08,1.2,Calm,Calm,-,N/A,,Unknown,0,2012-12-29 12:55:00
5:15 AM,32.0,30.2,93,30.08,7.0,Calm,Calm,-,N/A,,Unknown,0,2012-12-29 13:15:00
5:35 AM,32.0,30.2,93,30.08,6.0,Calm,Calm,-,N/A,,Unknown,0,2012-12-29 13:35:00
5:55 AM,32.0,30.2,93,30.08,7.0,Calm,Calm,-,N/A,,Unknown,0,2012-12-29 13:55:00
6:15 AM,32.0,32.0,100,30.08,6.0,Calm,Calm,-,N/A,,Unknown,0,2012-12-29 14:15:00
6:35 AM,32.0,32.0,100,30.09,8.0,Calm,Calm,-,N/A,,Unknown,0,2012-12-29 14:35:00
6:55 AM,32.0,32.0,100,30.09,7.0,Calm,Calm,-,N/A,,Unknown,0,2012-12-29 14:55:00
7:15 AM,32.0,32.0,100,30.09,5.0,Calm,Calm,-,N/A,,Unknown,0,2012-12-29 15:15:00
7:35 AM,32.0,32.0,100,30.09,8.0,Calm,Calm,-,N/A,,Unknown,0,2012-12-29 15:35:00
7:55 AM,32.0,32.0,100,30.09,10.0,Calm,Calm,-,N/A,,Unknown,0,2012-12-29 15:55:00
8:15 AM,32.0,30.2,93,30.10,10.0,Calm,Calm,-,N/A,,Unknown,0,2012-12-29 16:15:00
8:35 AM,32.0,30.2,93,30.10,10.0,Calm,Calm,-,N/A,,Unknown,0,2012-12-29 16:35:00
8:55 AM,32.0,30.2,93,30.11,10.0,Calm,Calm,-,N/A,,Unknown,0,2012-12-29 16:55:00
9:15 AM,32.0,30.2,93,30.12,10.0,Calm,Calm,-,N/A,,Unknown,0,2012-12-29 17:15:00
9:35 AM,32.0,30.2,93,30.12,10.0,Calm,Calm,-,N/A,,Unknown,0,2012-12-29 17:35:00
9:55 AM,32.0,30.2,93,30.12,10.0,Calm,Calm,-,N/A,,Unknown,0,2012-12-29 17:55:00
10:15 AM,32.0,30.2,93,30.12,10.0,West,3.5,-,N/A,,Unknown,280,2012-12-29 18:15:00
10:35 AM,32.0,30.2,93,30.12,10.0,West,3.5,-,N/A,,Unknown,270,2012-12-29 18:35:00
10:55 AM,32.0,28.4,87,30.11,10.0,Calm,Calm,-,N/A,,Unknown,0,2012-12-29 18:55:00
11:15 AM,32.0,28.4,87,30.10,10.0,Calm,Calm,-,N/A,,Unknown,0,2012-12-29 19:15:00
11:35 AM,32.0,28.4,87,30.08,10.0,Calm,Calm,-,N/A,,Unknown,0,2012-12-29 19:35:00
11:55 AM,32.0,28.4,87,30.08,10.0,Calm,Calm,-,N/A,,Unknown,0,2012-12-29 19:55:00
12:15 PM,32.0,30.2,93,30.07,10.0,Calm,Calm,-,N/A,,Unknown,0,2012-12-29 20:15:00
12:35 PM,32.0,28.4,87,30.07,10.0,Calm,Calm,-,N/A,,Unknown,0,2012-12-29 20:35:00
12:55 PM,32.0,28.4,87,30.06,10.0,Calm,Calm,-,N/A,,Unknown,0,2012-12-29 20:55:00
1:15 PM,33.8,28.4,81,30.05,10.0,Calm,Calm,-,N/A,,Unknown,0,2012-12-29 21:15:00
1:35 PM,33.8,30.2,87,30.05,10.0,SW,3.5,-,N/A,,Unknown,220,2012-12-29 21:35:00
1:55 PM,35.6,30.2,81,30.05,10.0,SSW,4.6,-,N/A,,Unknown,210,2012-12-29 21:55:00
2:15 PM,35.6,32.0,87,30.05,10.0,SSW,3.5,-,N/A,,Unknown,210,2012-12-29 22:15:00
2:35 PM,35.6,32.0,87,30.05,10.0,SSW,3.5,-,N/A,,Unknown,210,2012-12-29 22:35:00
2:55 PM,35.6,32.0,87,30.04,10.0,SW,3.5,-,N/A,,Unknown,230,2012-12-29 22:55:00
3:15 PM,35.6,32.0,87,30.04,10.0,Calm,Calm,-,N/A,,Unknown,0,2012-12-29 23:15:00
3:35 PM,35.6,32.0,87,30.04,10.0,SW,3.5,-,N/A,,Unknown,220,2012-12-29 23:35:00
3:55 PM,35.6,32.0,87,30.05,10.0,SSW,3.5,-,N/A,,Unknown,210,2012-12-29 23:55:00
4:35 PM,35.6,32.0,87,30.04,10.0,Calm,Calm,-,N/A,,Unknown,0,2012-12-30 00:35:00
4:55 PM,35.6,32.0,87,30.04,10.0,Calm,Calm,-,N/A,,Unknown,0,2012-12-30 00:55:00
5:15 PM,33.8,32.0,93,30.05,10.0,Calm,Calm,-,N/A,,Unknown,0,2012-12-30 01:15:00
5:35 PM,33.8,32.0,93,30.06,10.0,Calm,Calm,-,N/A,,Unknown,0,2012-12-30 01:35:00
5:55 PM,33.8,32.0,93,30.05,10.0,Calm,Calm,-,N/A,,Unknown,0,2012-12-30 01:55:00
6:15 PM,33.8,32.0,93,30.06,10.0,SSW,3.5,-,N/A,,Unknown,200,2012-12-30 02:15:00
6:35 PM,32.0,32.0,100,30.06,10.0,Calm,Calm,-,N/A,,Unknown,0,2012-12-30 02:35:00
6:55 PM,32.0,32.0,100,30.06,10.0,Calm,Calm,-,N/A,,Unknown,0,2012-12-30 02:55:00
7:15 PM,32.0,32.0,100,30.07,10.0,Calm,Calm,-,N/A,,Unknown,0,2012-12-30 03:15:00
7:35 PM,32.0,32.0,100,30.06,10.0,Calm,Calm,-,N/A,,Unknown,0,2012-12-30 03:35:00
7:55 PM,32.0,32.0,100,30.07,10.0,Calm,Calm,-,N/A,,Unknown,0,2012-12-30 03:55:00
8:15 PM,32.0,32.0,100,30.07,10.0,Calm,Calm,-,N/A,,Unknown,0,2012-12-30 04:15:00
8:35 PM,32.0,32.0,100,30.07,10.0,Calm,Calm,-,N/A,,Unknown,0,2012-12-30 04:35:00
8:55 PM,32.0,32.0,100,30.07,10.0,Calm,Calm,-,N/A,,Unknown,0,2012-12-30 04:55:00
9:15 PM,32.0,32.0,100,30.08,10.0,Calm,Calm,-,N/A,,Unknown,0,2012-12-30 05:15:00
9:35 PM,32.0,32.0,100,30.07,10.0,WNW,3.5,-,N/A,,Unknown,290,2012-12-30 05:35:00
9:55 PM,32.0,32.0,100,30.06,10.0,Calm,Calm,-,N/A,,Unknown,0,2012-12-30 05:55:00
10:15 PM,32.0,32.0,100,30.07,10.0,Calm,Calm,-,N/A,,Unknown,0,2012-12-30 06:15:00
10:35 PM,32.0,32.0,100,30.08,10.0,Calm,Calm,-,N/A,,Unknown,0,2012-12-30 06:35:00
10:55 PM,32.0,32.0,100,30.08,10.0,Calm,Calm,-,N/A,,Unknown,0,2012-12-30 06:55:00
11:15 PM,32.0,32.0,100,30.08,10.0,Calm,Calm,-,N/A,,Unknown,0,2012-12-30 07:15:00
11:35 PM,32.0,32.0,100,30.08,10.0,Calm,Calm,-,N/A,,Unknown,0,2012-12-30 07:35:00
11:55 PM,32.0,32.0,100,30.08,10.0,Calm,Calm,-,N/A,,Unknown,0,2012-12-30 07:55:00